Location: Table Mountain
(47.2500°N, 120.5778°W)
Time: 17:28:34
(UTC-08:00)

Vanguard 2 Rocket - All Passes

Search period start: 17 December 2017 00:00
Search period end: 27 December 2017 00:00
Orbit: 556 x 3326 km, 32.9° (Epoch: 16 December)

Date Brightness Start Highest point End Pass type
(mag) Time Alt. Az. Time Alt. Az. Time Alt. Az.
17 Dec - 00:44:47 10° W 00:58:52 27° SW 01:13:20 10° SSE night (unlit)
17 Dec - 17:06:02 10° S 17:13:22 24° SE 17:23:53 10° E visible
17 Dec - 19:15:48 10° SW 19:26:38 44° SSE 19:43:14 10° ESE visible
17 Dec - 21:28:24 10° WSW 21:42:05 46° S 22:00:30 10° SE visible
17 Dec - 23:43:25 10° W 23:58:00 33° SSW 00:14:17 10° SSE visible
18 Dec - 02:05:27 10° WSW 02:12:33 13° SW 02:19:36 10° SSW night (unlit)
18 Dec - 16:09:33 10° SSE 16:14:18 15° SE 16:20:17 10° ESE daylight
18 Dec - 18:17:17 10° SW 18:26:30 37° SSE 18:40:57 10° E visible
18 Dec - 20:28:57 10° WSW 20:41:08 47° S 20:59:00 10° ESE visible
18 Dec - 22:42:50 10° W 22:57:00 38° SSW 23:14:22 10° SE visible
19 Dec - 01:00:49 10° WSW 01:12:10 19° SW 01:24:00 10° S night (unlit)
19 Dec - 17:19:14 10° SSW 17:26:52 29° SSE 17:38:29 10° E visible
19 Dec - 19:29:53 10° WSW 19:40:32 45° S 19:57:06 10° ESE visible
19 Dec - 21:42:51 10° WSW 21:55:59 42° SSW 22:13:41 10° SE visible
19 Dec - 23:58:40 10° W 00:11:31 25° SW 00:25:55 10° S visible
20 Dec - 16:21:52 10° S 16:27:39 20° SE 16:35:46 10° E daylight
20 Dec - 18:31:13 10° SW 18:40:20 40° SSE 18:54:58 10° ESE visible
20 Dec - 20:43:18 10° WSW 20:55:07 44° S 21:12:26 10° SE visible
20 Dec - 22:57:42 10° W 23:10:43 31° SSW 23:26:35 10° SSE visible
21 Dec - 01:19:37 10° WSW 01:25:28 12° SW 01:31:30 10° SSW night (unlit)
21 Dec - 15:26:11 10° SSE 15:28:48 12° SE 15:31:52 10° ESE daylight
21 Dec - 17:32:54 10° SW 17:40:35 33° SSE 17:52:45 10° ESE visible
21 Dec - 19:44:10 10° WSW 19:54:32 44° S 20:10:45 10° ESE visible
21 Dec - 21:57:29 10° W 22:09:51 35° SSW 22:26:23 10° SE visible
22 Dec - 00:15:00 10° WSW 00:25:01 18° SW 00:36:05 10° S visible
22 Dec - 16:35:04 10° SSW 16:41:15 25° SSE 16:50:29 10° ESE visible
22 Dec - 18:45:22 10° WSW 18:54:18 41° S 19:08:49 10° ESE visible
22 Dec - 20:57:50 10° WSW 21:09:07 38° SSW 21:25:29 10° SE visible
22 Dec - 23:13:10 10° WSW 23:24:24 23° SSW 23:37:52 10° S visible
23 Dec - 15:37:59 10° S 15:42:17 17° SE 15:47:58 10° ESE daylight
23 Dec - 17:46:53 10° SW 17:54:29 36° SSE 18:06:48 10° ESE visible
23 Dec - 19:58:35 10° WSW 20:08:36 40° S 20:24:07 10° SE visible
23 Dec - 22:12:31 10° WSW 22:23:44 28° SSW 22:38:22 10° SSE visible
24 Dec - 00:35:45 10° SW 00:38:32 10° SW 00:41:25 10° SW night (unlit)
24 Dec - 16:48:46 10° SW 16:55:03 29° SSE 17:04:49 10° ESE visible
24 Dec - 18:59:41 10° WSW 19:08:23 39° S 19:22:26 10° ESE visible
24 Dec - 21:12:36 10° WSW 21:23:08 32° SSW 21:38:01 10° SSE visible
24 Dec - 23:29:58 10° WSW 23:38:06 16° SW 23:47:25 10° S visible
25 Dec - 15:51:07 10° SSW 15:55:58 21° SSE 16:02:51 10° ESE daylight
25 Dec - 18:01:06 10° SW 18:08:31 37° S 18:20:39 10° ESE visible
25 Dec - 20:13:12 10° WSW 20:22:42 34° SSW 20:37:04 10° SE visible
25 Dec - 22:28:15 10° WSW 22:37:36 20° SSW 22:49:16 10° S visible
26 Dec - 14:54:28 10° S 14:57:10 13° SE 15:00:26 10° ESE daylight
26 Dec - 17:02:48 10° SW 17:09:01 31° SSE 17:18:54 10° ESE visible
26 Dec - 19:14:12 10° WSW 19:22:32 35° S 19:35:45 10° SE visible
26 Dec - 21:27:49 10° WSW 21:37:09 24° SSW 21:49:46 10° SSE visible
